NOAA 16 DEB

Satellite information

Favourite Embed

Satellite Type and Status

DEBRISIN ORBIT

Key statistics

Satellite NOAA 16 DEB at a glance.

Uptime

9158

Days in orbit

Revolutions

≈ 14.3

Per day

Orbit

SSO

Sun Synchronous Orbit

Inclination

98.6

Latest

Satellite identification and parameters

Extended collection of information and parameters for NOAA 16 DEB.

Object identification

Identified? True

Debris? True

Object name: NOAA 16 DEB

International designator: 2000-055SG

Object number (NORAD): 42388

Object ID (CCSDS): 42388

Country: UNITED STATES OF AMERICA (US)

Current information (Y/N): Y

RCS size: SMALL

Orbital parameters

Period: 100.775 minutes

Inclination: 98.6122 deg

SMA: 7173.468 km

Apoapsis: 805.309 km

Periapsis: 785.358 km

RAAN: 325.2745 deg

Eccentricy: 0.00139055

Argument of periapsis: 293.2286 deg

Mean anomaly: 66.7431 deg

Mean motion: 14.28923484 rev/day

Mean motion (dot): 0.00004694 rev/day2

B* drag term: 0.001872976 1/REarth

Two-line elements (TLE)

Creation date: Oct. 15, 2025, 2:21 a.m.

Reference frame: TEME

Reference center: EARTH

Epoch: Oct. 14, 2025, 8:17 p.m. UTC

TLE line 0: 0 NOAA 16 DEB

TLE line 1: 1 42388U 00055SG 25287.84566233 .00004694 00000-0 18730-2 0 9990

TLE line 2: 2 42388 98.6122 325.2745 0013906 293.2286 66.7431 14.28923484499110

Live tracking on map

Real-time ground track for satellite NOAA 16 DEB.

In-orbit conjunctions

A list of the most updated potential collisions computed for object NOAA 16 DEB.

Target Orbit TCA Probability of collision Miss distance Type
THOR BURNER 2 R/B SSO 2025-09-06 03:54:25 0.0007592357 113.0 (m) ROCKET BODY
CZ-6A DEB LEO 2025-04-17 15:40:52 0.0001418188 57.0 (m) DEBRIS
SL-6 R/B SSO 2025-01-12 04:57:40 0.0001015815 443.0 (m) ROCKET BODY

Associated space launch

The NOAA K, L and M POES satellites begin the fifth generation of improved environmental monitoring in support of NOAA missions. The instrument payload has significant improvements and additions/deletions. The instrument changes have effected the spacecraft subsystems and data formats.

NOAA 16 DEB was lifted into orbit during the mission ‘Titan II SLV | NOAA 16’, on board a Titan II SLV space rocket.

The launch took place on Sept. 21, 2000, 10:22 a.m. from Space Launch Complex 4W.

For more information about the launch, click the button.

Launch to space Titan II SLV | NOAA 16
Titan II SLV | NOAA 16

Agency: N/A

Status: Launch Successful

Launch date: Sept. 21, 2000, 10:22 a.m. UTC

Rocket: Titan II SLV

Launch pad: Space Launch Complex 4W

Location: Vandenberg SFB, CA, USA

...

Latest news about this satellite

There are no fresh news available about this satellite. Check back as we update our databases every day.


Newsletter sign-up

Weekly statistics, charts and insights to help you stay on top of the space industry.